GFSMA_250_rhum_105.txt.gz
RH
35 30 30 24 25 44 34 27 54 74 75 90 100 100 100 100 100 100 86 74 82 69 69 34 33 40 45 40 34 32 51 84 100 100 96 68 92 87 100 100 100 100 100
35 33 32 26 26 31 33 32 66 69 74 56 84 100 100 100 100 100 90 94 93 100 39 32 41 34 32 37 38 43 70 92 74 100 98 92 93 100 100 100 100 100 100
35 42 38 38 30 27 22 67 74 85 96 89 63 100 100 100 100 99 89 91 85 100 42 59 52 53 46 40 28 49 98 100 100 100 100 100 100 100 100 100 100 100 100
54 93 56 48 35 33 15 56 76 86 97 100 99 100 100 100 100 99 100 100 100 79 59 68 66 65 50 39 24 25 31 44 69 96 99 100 99 97 100 92 88 99 100
30 35 40 36 39 35 18 39 75 83 94 99 97 100 100 100 100 100 100 100 100 86 71 70 74 67 45 43 32 32 29 28 35 48 61 62 69 92 95 77 84 97 100
33 30 35 34 38 35 21 35 63 65 79 95 100 82 100 100 100 100 94 100 85 100 96 86 63 62 53 45 40 34 29 25 26 30 38 50 73 100 100 94 83 100 90
33 31 32 33 39 36 23 22 61 66 64 76 82 96 100 100 100 99 100 100 92 99 100 97 72 72 53 54 48 46 28 26 27 28 33 40 72 84 93 91 100 83 96
42 34 34 35 42 38 24 38 88 84 86 87 92 100 98 100 100 100 100 82 97 98 100 100 89 77 58 72 64 64 67 58 38 31 30 26 37 51 57 81 100 100 100
44 36 42 47 46 40 24 83 98 72 81 100 100 90 100 100 100 100 100 100 100 100 100 93 92 81 82 92 89 92 87 64 50 43 38 36 36 44 66 69 82 100 98
49 37 40 46 43 38 50 100 100 77 64 96 100 100 99 100 100 98 100 100 100 100 100 93 91 100 100 100 100 99 99 77 54 43 46 38 39 54 63 84 100 97 95
53 38 40 48 42 36 100 100 92 100 100 100 100 100 100 100 91 87 100 100 100 100 100 100 100 100 100 100 100 100 92 74 46 54 51 46 52 52 49 85 96 68 83
56 38 36 49 42 47 100 100 100 100 100 100 100 100 100 100 99 100 100 100 100 100 100 99 84 100 100 100 100 98 77 58 39 37 45 49 56 72 84 83 100 100 100
56 42 35 48 42 72 100 100 98 100 100 100 100 100 100 100 100 100 100 100 100 98 82 100 100 100 100 100 99 78 46 32 32 32 45 68 86 90 94 100 100 100 91
54 46 36 47 42 100 100 100 100 100 100 100 100 100 100 100 98 100 100 100 85 100 83 100 100 100 100 94 69 41 40 28 61 64 88 28 22 27 37 32 34 28 26
56 56 38 45 42 100 100 100 100 100 100 100 100 100 100 100 100 100 100 100 96 78 93 100 100 100 74 47 31 24 38 74 87 88 22 22 24 25 28 28 28 30 32
62 63 42 43 40 80 100 100 100 98 100 100 100 100 100 100 100 100 86 66 81 80 88 86 73 66 42 34 27 30 61 100 74 21 22 27 28 30 34 40 45 49 50
74 71 48 41 42 61 100 100 100 100 97 100 100 100 100 100 100 100 100 89 90 88 66 61 28 34 33 31 48 90 100 64 28 26 26 30 34 39 38 37 37 38 40
82 76 74 50 47 51 82 100 100 100 100 95 100 100 100 100 100 93 79 69 60 62 66 55 54 44 46 57 100 96 51 31 28 30 33 37 36 36 38 42 42 46 47
84 78 71 66 50 48 56 100 100 100 99 100 100 100 100 100 100 100 100 100 100 94 82 61 86 54 99 100 78 55 39 30 33 31 33 34 38 41 41 38 50 52 51
92 83 69 70 62 51 50 76 100 100 100 100 100 100 100 100 100 100 100 100 100 100 97 100 100 100 100 79 58 43 34 38 39 42 43 40 38 41 40 40 50 54 52
100 100 67 60 51 48 51 54 100 100 100 100 98 84 96 100 100 100 100 100 100 100 100 100 100 98 78 54 42 35 44 44 50 49 50 55 48 48 44 41 52 50 46
100 99 77 66 56 48 49 53 64 100 100 100 100 100 100 100 100 100 100 100 100 100 100 100 84 65 53 43 43 52 49 52 63 70 75 68 63 55 55 52 47 64 77
100 99 83 72 58 50 51 54 52 61 79 99 99 100 98 100 100 100 100 100 97 89 75 58 54 46 47 70 80 70 75 80 79 80 73 63 58 56 54 67 73 89 88
100 98 81 79 82 63 54 54 55 48 48 53 60 65 65 66 66 73 95 79 72 78 80 66 60 65 92 98 95 90 88 78 70 66 64 57 59 53 58 71 81 85 92
100 100 79 82 97 96 76 56 58 57 52 55 59 64 63 73 91 88 88 94 87 81 90 98 100 97 86 92 85 79 73 68 66 66 61 57 48 57 59 70 71 81 100
90 98 87 83 77 95 99 87 65 64 64 60 61 76 100 100 100 100 100 100 100 100 99 99 99 73 74 71 59 54 49 45 43 51 57 71 62 69 82 84 68 85 92

GFSMA_250_rhum_108.txt.gz
RH
85 48 34 29 30 36 28 25 26 42 44 42 67 87 100 100 89 100 100 99 80 78 54 66 74 58 27 31 51 52 41 33 47 84 91 94 77 76 93 93 100 100 100
50 36 32 36 34 48 40 30 28 30 34 28 39 68 92 100 100 100 100 100 92 88 68 71 100 64 29 54 52 60 40 37 48 58 70 96 98 96 99 100 100 100 97
34 32 29 32 36 40 42 39 34 28 22 61 51 82 100 100 100 100 100 100 100 87 78 80 94 33 42 55 72 61 36 50 91 100 99 98 99 99 100 100 100 100 99
33 33 32 37 30 25 30 36 36 32 17 76 89 85 96 100 100 100 100 100 100 99 80 97 98 48 42 80 70 53 32 29 30 31 48 74 80 84 87 85 100 81 87
38 38 37 36 32 26 28 35 36 35 21 77 96 99 95 100 100 100 100 100 100 100 69 100 97 71 64 63 82 56 36 36 30 28 26 26 26 29 32 44 62 60 69
38 41 44 41 34 29 27 37 39 36 24 52 100 99 90 100 100 100 100 100 100 100 93 100 100 78 69 69 68 63 46 46 45 31 30 41 30 31 35 31 31 38 49
38 40 46 52 43 32 28 34 38 34 26 25 93 88 87 100 100 100 100 100 100 98 100 100 100 100 91 78 73 63 55 53 59 75 79 69 62 55 48 41 41 46 60
43 46 57 56 52 36 36 43 37 32 20 40 73 76 87 81 100 100 100 100 100 100 100 89 64 93 100 89 70 78 70 75 75 85 89 88 68 52 41 44 44 48 63
47 52 65 68 61 37 37 48 36 32 25 82 100 81 93 95 100 100 100 100 100 100 100 100 82 86 100 100 96 85 84 91 98 100 100 80 69 47 44 40 42 50 61
54 61 68 76 66 40 37 50 39 30 74 100 76 85 100 100 100 100 100 97 100 100 100 100 70 70 100 99 99 100 99 100 100 100 96 83 56 40 49 48 53 64 74
74 80 74 73 64 43 40 49 38 88 99 84 83 100 96 100 100 100 100 100 100 100 100 100 100 100 100 100 100 100 100 100 96 96 99 83 65 36 50 60 95 100 100
98 94 80 78 66 44 40 50 40 98 100 100 89 92 96 92 100 100 100 100 100 100 100 100 100 100 92 100 95 86 70 90 100 100 72 60 44 24 51 85 22 28 74
100 99 87 84 67 46 41 53 52 100 100 100 100 100 100 100 100 100 100 100 100 100 100 100 100 100 100 73 73 65 99 100 100 79 46 35 24 54 86 28 20 21 24
100 99 97 83 60 48 42 52 61 100 100 100 96 100 100 100 100 100 100 100 100 100 100 100 100 100 100 84 88 100 100 100 100 76 31 25 49 91 63 22 22 26 28
100 100 100 83 67 52 45 51 56 100 100 99 96 100 100 100 100 100 100 100 100 96 100 100 100 100 100 100 100 88 86 100 83 40 27 24 86 88 39 23 29 30 33
100 100 100 76 54 56 50 52 58 100 100 100 100 100 100 100 100 100 100 100 100 100 97 100 100 95 94 100 100 99 91 77 37 54 28 70 95 59 25 31 36 34 36
100 100 100 87 55 62 56 48 59 100 100 100 96 100 100 100 100 100 100 100 100 100 100 100 100 100 100 100 82 62 54 64 54 27 75 100 81 30 34 39 35 38 38
100 100 100 94 68 65 57 49 58 89 100 100 100 100 100 100 100 100 100 100 100 100 99 92 100 98 85 62 65 84 85 60 52 70 100 82 60 27 32 43 51 42 40
100 100 100 99 62 80 67 52 57 66 100 100 100 100 100 100 100 100 100 100 100 100 100 86 85 77 68 83 91 91 72 34 86 100 92 74 46 42 46 47 45 45 62
97 100 99 88 89 81 65 52 74 60 79 100 100 100 100 100 100 100 100 100 100 100 100 100 100 100 100 100 81 70 62 100 100 96 83 70 38 36 40 42 50 62 71
89 86 93 100 96 75 65 56 55 76 67 89 100 100 100 100 100 100 100 100 100 96 100 100 100 92 86 84 97 99 100 100 98 82 72 53 50 53 71 76 80 87 79
93 77 100 100 89 74 80 79 56 54 57 68 96 100 100 100 100 100 100 100 100 100 100 100 100 100 100 100 100 100 100 100 95 85 66 73 90 90 99 92 82 72 68
100 79 97 100 100 100 92 88 60 50 51 54 67 98 100 100 100 100 99 100 100 100 100 100 100 100 100 100 100 100 99 92 80 81 97 100 98 88 84 79 64 53 53
82 88 98 100 100 100 96 98 100 88 57 55 55 67 99 100 100 100 100 100 100 100 100 100 100 100 100 100 99 90 81 86 84 95 100 93 94 79 66 54 50 45 42
94 94 100 100 100 100 100 97 96 85 69 55 61 56 72 92 100 100 100 100 100 100 100 100 100 100 100 100 98 100 99 88 85 100 99 93 78 73 60 52 47 71 71
100 99 100 100 99 100 99 83 84 97 79 58 60 60 58 71 79 85 97 95 89 89 91 99 100 100 100 100 100 100 99 95 100 100 98 81 74 62 55 80 88 94 100

GFSMA_250_rhum_114.txt.gz
RH
99 92 80 98 100 86 39 32 29 24 22 23 24 27 24 36 77 100 100 100 100 100 100 100 90 84 59 64 63 45 25 49 44 52 39 18 23 34 43 58 60 55 58
100 100 100 100 98 56 38 36 37 28 26 24 24 26 25 30 48 74 95 100 100 100 100 99 100 92 77 66 70 89 27 42 62 63 58 31 30 34 38 47 56 60 72
100 100 100 100 77 44 40 42 40 41 28 25 26 29 27 27 33 66 100 100 100 100 100 94 100 100 90 75 100 57 43 37 67 61 60 34 30 33 41 55 35 51 51
100 100 100 98 52 44 42 44 50 44 36 30 27 33 33 28 20 38 100 100 100 100 100 100 100 100 81 100 98 57 87 50 66 76 65 41 34 31 29 46 75 86 61
96 95 87 49 44 43 44 49 59 52 41 33 29 36 42 36 28 58 92 100 100 100 100 100 88 92 81 100 69 92 98 48 72 82 68 57 43 34 34 70 96 85 85
96 78 45 41 44 49 49 49 55 52 43 37 30 31 41 42 40 34 99 100 100 100 100 100 95 96 100 100 59 78 100 80 76 81 76 59 47 48 70 96 99 94 78
83 76 38 45 46 52 55 50 55 58 51 46 33 33 44 45 40 33 46 100 100 100 100 100 100 100 100 88 99 68 100 100 70 92 71 50 54 72 100 100 86 92 76
83 57 48 48 47 63 67 59 57 60 62 51 37 35 48 41 37 32 21 84 100 100 100 100 88 100 93 94 91 78 100 100 71 100 83 56 85 99 100 100 100 85 70
68 51 42 44 60 67 77 67 72 87 77 57 41 34 44 42 34 27 18 65 100 100 100 100 100 100 100 98 54 91 100 100 100 100 100 83 95 100 100 100 100 99 87
60 53 49 67 92 97 88 80 91 100 90 64 50 34 42 41 34 31 45 73 87 100 100 100 100 100 100 93 72 100 98 100 100 100 100 99 100 100 100 94 81 90 94
70 58 72 61 75 93 100 93 98 100 98 70 57 36 42 43 81 86 83 82 75 91 100 100 100 100 100 92 100 96 88 100 94 100 100 100 100 100 100 95 74 77 100
88 98 96 99 89 100 88 78 86 100 95 78 60 40 41 42 84 100 100 85 70 89 100 100 100 100 100 69 100 100 100 100 94 100 100 100 100 100 98 82 76 78 96
100 100 70 64 63 67 72 68 74 100 90 97 68 48 43 54 81 100 100 100 96 90 100 100 100 100 100 90 82 100 87 100 98 81 65 100 100 100 95 82 90 92 86
100 100 100 88 86 86 70 70 67 100 100 87 74 56 44 55 92 100 100 100 100 100 92 100 100 100 100 100 100 98 100 89 100 100 96 100 100 100 100 87 70 86 86
83 99 99 100 100 100 82 73 84 94 100 80 70 67 56 47 79 96 97 95 91 100 100 93 100 100 100 100 100 100 59 100 100 100 100 100 100 100 100 84 92 90 69
97 100 100 100 100 100 91 85 93 100 100 84 79 62 68 60 67 88 99 100 100 100 94 100 95 100 100 100 100 99 75 100 100 100 100 100 99 99 100 100 100 82 56
96 100 100 100 100 100 96 100 100 100 100 92 83 62 67 60 55 96 99 100 100 100 95 100 100 100 100 100 100 100 98 100 100 100 100 100 100 93 97 100 96 71 62
89 83 80 91 91 89 100 98 97 100 100 94 89 70 79 73 58 86 89 100 100 93 73 100 100 100 100 100 100 100 100 100 100 100 100 100 95 89 85 100 91 86 64
74 66 70 70 95 100 100 100 100 99 90 89 89 92 83 88 53 70 100 100 100 100 96 96 100 100 100 100 92 97 100 100 99 97 93 97 69 75 96 93 83 72 73
90 92 69 69 88 96 100 99 100 90 89 92 98 88 98 78 51 57 99 100 100 100 100 100 100 100 100 100 100 100 100 100 100 94 95 80 100 100 94 83 78 86 71
100 100 84 86 97 96 83 97 90 95 97 94 85 84 97 77 72 60 61 100 100 100 100 100 100 100 100 100 100 100 100 100 98 100 100 100 100 93 96 96 80 76 99
100 100 100 100 100 100 98 82 100 100 100 100 89 80 89 81 61 56 60 76 100 100 100 100 100 100 100 100 100 100 100 100 100 100 89 95 86 80 99 84 100 80 100
100 100 100 84 100 100 100 97 100 91 77 90 91 93 86 83 87 67 55 64 96 100 100 100 100 100 100 100 79 91 98 91 97 94 81 64 99 100 100 97 94 97 100
100 100 93 90 92 95 100 88 100 100 100 100 100 66 70 60 71 74 69 65 70 94 100 100 100 100 100 100 100 99 100 94 94 90 94 100 100 100 98 100 100 100 100
100 97 98 92 87 82 91 97 100 100 100 100 100 100 81 69 76 65 58 74 68 72 89 100 100 100 100 100 100 100 100 100 100 100 100 100 100 100 100 100 100 100 100
69 68 67 67 72 77 87 100 100 100 73 100 100 78 70 68 91 84 80 97 92 77 76 86 99 100 100 100 100 100 96 88 88 96 100 100 100 100 100 100 100 100 100

GFSMA_250_rhum_117.txt.gz
RH
83 77 94 98 86 89 100 100 52 36 34 30 23 21 21 20 28 30 85 100 100 100 100 100 99 100 94 88 63 43 59 52 39 32 43 53 28 23 26 33 48 54 56
66 73 93 87 100 99 100 92 43 42 38 40 26 22 21 22 23 33 50 88 100 100 100 100 99 83 100 95 74 53 87 52 63 38 47 71 51 25 29 39 47 36 35
59 79 71 100 100 95 100 73 41 42 47 41 32 25 24 22 24 28 33 77 100 100 100 100 100 99 96 95 96 81 100 100 47 54 62 64 72 35 28 31 32 44 84
63 67 80 100 99 100 100 55 40 42 58 47 37 27 24 25 25 28 28 65 100 100 100 100 100 97 98 87 100 73 78 100 54 72 70 71 78 52 34 32 55 79 90
49 69 86 100 74 92 90 42 40 48 54 50 47 37 30 26 26 29 30 70 100 100 100 100 100 100 100 82 97 78 87 98 98 100 62 90 65 55 42 35 69 100 99
42 55 70 100 88 92 53 41 44 48 51 54 49 47 39 29 29 32 32 30 100 100 100 100 100 100 96 89 79 71 100 100 99 100 59 83 63 64 48 40 93 100 98
45 52 49 90 100 76 46 45 46 50 54 57 56 52 46 35 29 34 37 32 58 100 100 100 100 100 100 100 63 72 87 91 100 100 88 84 77 72 50 56 100 100 96
51 44 43 48 81 77 44 50 57 56 60 72 80 63 49 47 32 36 39 36 30 82 100 100 100 100 100 100 79 58 98 100 97 97 100 99 74 89 57 72 100 100 100
65 45 53 65 85 73 47 50 64 62 66 68 92 81 56 50 36 34 34 37 34 29 88 100 100 100 100 100 82 73 85 81 74 90 100 86 76 97 75 86 100 100 100
77 57 58 79 84 71 48 62 99 94 90 60 94 92 60 57 43 36 33 31 33 26 26 94 100 100 100 100 83 92 100 73 44 57 100 100 98 100 94 99 100 100 100
76 71 63 89 78 61 51 93 100 100 96 58 86 97 58 58 52 41 37 30 40 30 41 100 100 90 100 100 100 100 100 100 56 77 88 100 100 97 96 100 100 100 100
81 80 99 85 68 66 74 94 100 100 89 67 78 95 73 74 47 40 38 44 72 79 92 89 100 100 100 100 100 100 100 100 93 100 100 91 100 100 100 100 100 100 100
94 75 86 98 94 95 89 98 83 87 86 80 80 88 92 81 50 47 39 59 86 72 72 81 90 100 100 94 96 92 74 45 83 87 100 93 100 100 100 100 100 100 100
100 68 78 100 94 70 68 64 74 82 92 100 88 100 84 61 55 52 42 46 82 82 96 96 78 99 100 100 100 100 97 80 82 82 93 78 82 100 100 88 100 100 100
100 98 96 84 74 100 96 85 91 100 100 100 96 100 88 70 68 52 50 45 59 73 88 100 98 97 98 100 100 99 100 100 91 80 94 100 89 100 100 100 100 100 100
85 72 79 82 94 98 99 100 100 100 87 92 100 100 94 83 74 65 55 54 48 68 84 90 70 82 100 98 100 90 94 100 100 100 100 94 74 100 100 100 100 100 100
99 90 88 81 99 100 100 100 98 100 100 94 94 100 100 100 76 74 56 53 58 53 65 83 88 88 97 88 100 100 93 100 100 100 100 90 59 46 99 100 100 100 97
100 96 100 90 100 100 100 100 100 100 100 100 82 97 96 79 73 75 71 48 54 53 68 67 76 83 98 100 100 100 100 81 100 100 100 100 98 91 98 100 100 100 100
87 97 98 96 100 100 100 100 100 100 100 100 87 89 88 68 55 80 74 64 54 56 68 84 78 74 75 76 100 100 100 100 67 90 100 100 100 100 100 100 100 100 100
79 80 97 86 82 81 76 92 98 98 97 100 94 68 70 75 78 100 78 68 59 55 75 89 71 85 71 100 100 99 100 100 87 100 96 100 100 100 100 100 100 100 100
83 88 96 95 99 100 87 65 71 98 98 100 100 100 87 100 94 100 89 62 64 61 58 84 100 100 100 100 100 100 84 97 100 100 100 74 72 97 100 100 90 93 84
99 100 98 100 96 100 80 84 97 100 100 100 100 100 100 100 100 96 98 58 70 62 48 49 88 100 76 83 100 100 100 93 80 100 100 98 100 90 95 93 83 82 99
80 100 100 100 100 100 87 74 78 72 99 100 100 100 100 100 100 100 100 94 61 57 57 46 44 89 100 100 100 100 96 100 100 93 87 93 75 82 100 100 100 99 84
72 95 100 100 100 100 100 98 89 59 89 100 100 100 100 100 100 100 100 88 75 87 64 50 48 56 93 100 100 100 100 98 100 99 85 72 83 74 79 93 96 98 100
75 80 97 100 100 100 100 100 100 100 100 97 100 86 85 93 79 85 85 95 70 86 87 64 71 65 67 75 100 100 100 100 99 100 100 100 100 100 100 100 100 100 100
62 69 81 98 100 100 100 100 100 100 100 88 83 100 100 100 100 95 100 88 100 99 99 87 67 52 55 54 60 100 100 100 100 100 98 100 100 100 97 99 100 100 100